Temperature
34 34 34 34 34 34 34 34 34 34 35 34 33 32 33 33 32 30 29 28 27 26 25 24 23 22 21 20 20 20 19 19 19 19 19 18 18 18 18 18 18 18 18 18
34 33 35 35 35 35 35 34 34 35 35 34 32 31 32 32 32 31 30 28 27 26 25 24 23 22 21 20 20 19 19 19 19 19 19 18 18 18 18 18 18 18 18 18
33 34 35 35 35 34 34 34 34 34 34 34 32 31 31 32 32 31 30 29 28 27 25 24 23 22 21 20 20 20 19 19 19 19 19 18 18 18 18 18 18 18 18 18
34 35 34 34 34 34 34 35 34 34 33 32 33 30 30 31 31 31 30 29 28 27 25 24 23 22 21 20 20 20 19 19 19 19 19 18 18 18 18 18 18 18 18 18
34 34 34 33 34 35 34 35 34 34 33 32 33 31 30 31 30 31 31 29 28 27 25 24 23 22 21 21 20 20 19 19 19 19 18 18 18 18 18 18 18 18 18 18
34 35 35 34 35 35 35 35 34 34 33 31 32 31 29 30 30 30 30 29 28 27 26 24 23 22 22 21 20 20 19 19 19 19 18 18 18 18 18 18 18 18 18 18
33 34 35 35 34 34 34 33 32 31 31 30 32 31 30 31 31 31 30 29 28 27 26 24 23 22 22 21 20 20 19 19 19 19 18 18 18 18 18 18 18 18 18 18
31 32 34 34 34 33 33 33 31 30 30 30 31 31 31 32 32 31 30 29 28 27 26 25 24 22 22 21 21 20 20 19 19 19 19 18 18 18 18 18 18 18 18 18
32 32 35 35 35 34 33 33 34 32 31 30 30 30 30 31 32 31 31 29 29 28 27 25 24 23 22 21 21 20 20 19 19 19 19 18 18 18 18 18 18 18 18 18
33 32 34 34 34 34 34 34 33 32 30 30 30 29 29 30 31 31 30 29 29 28 27 26 24 23 22 21 21 20 20 19 19 19 19 18 18 18 18 18 18 18 18 18
33 32 33 33 33 33 33 33 32 32 32 31 29 28 30 29 30 31 30 29 29 28 27 25 24 24 23 22 21 20 19 19 19 19 18 18 18 18 18 18 18 18 17 17
33 32 32 33 34 34 34 33 33 31 31 31 31 28 30 30 30 30 30 29 28 28 27 26 24 24 23 22 21 20 20 19 19 18 18 18 18 18 18 18 17 17 17 17
32 31 30 31 32 33 33 33 33 33 32 31 30 29 31 31 30 30 30 29 28 27 26 25 24 23 23 22 21 20 20 19 19 18 18 18 18 18 18 18 17 17 17 17
31 31 30 30 31 33 32 33 33 33 32 31 31 30 30 30 30 30 29 28 28 26 26 25 24 23 22 21 21 20 20 19 19 18 18 18 18 18 18 18 17 17 17 17
31 30 30 31 33 33 33 33 33 33 32 32 31 31 30 30 30 29 29 28 27 26 25 24 23 22 22 21 20 20 19 19 19 18 18 18 18 18 18 17 17 17 17 16
30 29 30 30 32 33 33 33 33 33 33 32 32 31 32 31 30 29 28 27 27 26 25 24 23 22 21 21 20 19 19 19 18 18 18 18 17 17 17 17 17 17 17 16
29 28 28 29 31 31 31 32 33 33 33 33 31 31 31 30 29 28 27 27 26 25 24 24 23 22 21 20 20 19 19 19 18 18 17 17 17 17 17 17 17 17 16 16
28 27 28 29 29 28 31 34 34 33 33 33 32 31 31 29 28 27 26 26 25 24 24 23 22 21 21 20 19 19 19 18 18 18 17 17 17 17 17 16 16 16 16 16
29 27 28 28 28 29 31 32 33 32 31 32 32 31 30 28 27 26 25 25 24 23 23 22 22 21 20 20 19 19 18 18 18 17 17 17 17 17 16 16 16 16 15 15
29 28 27 28 27 28 30 32 33 32 30 31 30 30 29 28 27 25 24 23 23 22 22 22 21 21 20 19 19 18 18 17 17 17 17 17 16 16 16 16 16 15 15 15
27 27 27 27 27 28 30 31 32 29 28 29 29 28 28 27 25 24 23 22 22 21 21 21 20 20 19 19 18 18 18 17 17 17 16 16 16 16 16 15 15 15 15 15
27 27 26 27 27 27 30 30 29 27 28 28 27 26 25 24 23 22 22 21 21 20 20 20 19 19 19 18 18 18 17 17 17 16 16 16 16 16 15 15 15 15 15 14
27 27 27 27 27 26 27 27 27 27 26 26 26 25 24 23 22 22 21 20 20 20 19 19 18 18 18 17 17 17 17 16 16 16 16 16 16 15 15 15 15 15 14 14
26 27 27 26 26 26 26 26 26 26 25 25 24 24 23 22 21 21 20 20 19 19 18 18 18 17 17 17 16 16 16 16 16 16 16 16 15 15 15 15 14 14 14 14
26 26 25 25 25 25 25 25 25 24 24 24 23 23 22 22 21 20 19 19 18 18 18 17 17 17 16 16 16 16 16 16 15 15 15 15 15 15 14 14 14 14 13 13
25 25 25 24 23 24 23 24 24 23 23 23 22 22 21 21 20 19 19 18 18 17 17 17 16 16 16 16 15 15 15 15 15 15 15 15 14 14 14 14 13 13 13 13
Wind_Speed
10 10 9 7 7 7 5 4 1 3 4 2 4 4 6 8 8 9 10 10 10 9 10 10 10 10 10 8 7 6 5 5 4 4 4 3 3 3 3 3 5 6 4 4
11 12 9 5 5 7 4 4 3 2 3 1 4 2 4 5 7 9 10 10 10 10 11 11 10 9 9 8 7 6 5 5 5 4 3 3 3 3 4 2 3 5 5 5
13 6 4 6 6 7 5 3 3 2 1 3 4 3 5 6 6 8 10 10 9 11 11 11 9 8 8 8 7 6 5 6 5 4 3 2 2 2 2 3 3 3 5 5
11 7 5 6 8 8 6 3 4 6 5 4 4 2 4 8 7 8 8 10 10 10 11 10 9 8 8 8 7 6 6 6 5 5 4 4 4 3 3 3 3 3 4 4
10 9 9 9 9 8 6 4 5 7 8 6 4 1 4 8 7 7 8 9 10 11 11 10 9 8 8 8 8 7 6 5 5 4 4 4 3 2 2 2 2 3 3 4
12 8 9 9 8 8 7 7 9 10 9 7 4 1 4 5 7 8 8 8 10 11 11 10 9 8 7 7 7 7 6 5 4 4 3 3 3 2 1 1 1 2 2 3
14 12 10 9 10 9 8 8 6 7 6 5 4 2 5 9 10 10 10 10 10 11 11 11 9 9 7 7 6 6 6 5 4 4 3 3 3 2 2 2 2 3 2 2
15 13 14 11 12 9 10 12 8 6 3 3 3 3 6 9 10 12 11 11 11 11 10 10 10 9 7 7 6 6 6 5 5 4 3 2 2 2 2 2 2 2 1 1
11 12 14 12 11 12 11 11 12 10 9 5 3 5 7 7 10 11 12 11 10 9 10 10 10 9 8 7 6 6 6 5 5 5 4 3 2 1 1 1 1 1 1 1
13 9 11 13 10 14 13 10 7 8 6 6 5 6 5 9 9 10 11 11 10 10 9 9 9 9 9 8 7 6 6 5 4 4 4 4 3 2 1 1 1 1 2 2
15 12 10 12 12 14 13 11 8 7 8 8 3 0 4 7 7 9 10 10 10 10 10 9 7 8 8 9 8 7 6 5 4 3 3 3 3 2 1 0 0 0 1 1
14 11 11 12 13 13 13 13 11 8 7 7 5 2 6 7 8 8 9 10 9 8 9 10 8 8 7 7 7 7 6 5 4 4 3 3 2 2 1 1 0 0 0 0
10 9 11 12 12 14 14 13 13 11 8 7 6 4 7 8 9 8 9 10 9 8 8 8 8 7 6 6 6 5 5 5 5 4 4 3 2 2 1 0 0 0 0 0
7 11 13 14 11 13 14 15 14 13 10 8 4 7 8 8 8 9 10 9 9 9 8 7 7 6 6 5 5 5 4 4 4 4 4 3 2 2 2 1 1 1 0 0
8 13 15 17 15 13 14 16 16 14 12 9 5 7 9 9 9 9 10 9 9 8 8 7 7 7 5 5 5 4 4 4 4 4 4 3 3 2 2 2 2 1 1 1
8 10 13 17 18 16 14 15 15 14 12 11 7 3 7 9 10 10 9 8 8 7 7 7 7 7 6 5 5 5 4 4 4 3 3 3 3 2 2 2 2 2 2 2
9 8 12 15 17 17 16 13 14 13 12 9 7 4 9 9 9 9 8 7 7 6 6 5 6 7 6 5 5 4 4 4 4 3 3 3 2 2 2 2 2 2 2 2
9 8 9 13 13 17 13 11 11 12 10 7 5 5 8 10 11 8 6 7 7 6 5 5 5 6 6 6 5 4 4 4 3 3 2 2 2 2 2 2 2 2 2 2
11 9 10 12 14 14 11 10 10 9 7 6 6 6 9 11 11 8 6 7 7 6 5 5 5 6 6 5 5 5 5 4 3 2 2 2 1 1 2 2 2 2 2 2
14 9 11 11 13 14 11 10 8 7 8 6 6 7 7 9 5 6 8 9 8 7 5 5 6 7 6 5 5 5 4 4 3 2 1 1 2 1 1 1 1 2 2 2
15 13 15 15 14 9 6 8 8 8 5 7 7 7 7 6 6 10 11 10 8 8 7 6 6 6 6 6 5 5 4 3 2 2 2 2 2 2 1 1 1 2 2 2
13 13 13 14 15 8 3 5 4 4 6 8 9 10 12 14 13 12 11 9 9 8 8 8 7 7 6 5 5 5 4 3 3 2 2 3 2 1 1 2 1 2 3 3
9 8 7 6 5 3 5 5 7 9 10 9 10 12 13 14 12 12 10 9 8 8 8 7 7 7 6 5 5 5 4 3 3 3 3 2 2 2 2 2 1 1 2 2
6 4 4 2 3 4 6 7 8 10 10 10 11 11 12 13 12 11 9 8 8 8 7 7 7 6 6 5 5 5 4 3 3 2 2 2 2 2 3 2 1 1 1 0
3 4 3 2 5 5 6 7 8 9 11 12 11 11 11 12 11 10 8 7 7 6 6 6 6 6 6 5 5 4 3 3 2 2 1 2 2 3 3 3 4 3 3 2
2 1 3 4 4 4 6 6 9 9 10 11 11 11 11 10 10 9 8 7 6 5 5 5 5 5 5 4 4 4 3 2 2 1 1 1 1 2 3 3 4 9 7 8
Wind_Direction
231 239 241 230 228 249 273 295 260 128 108 103 118 126 140 146 145 141 145 147 150 154 147 143 147 146 146 146 155 166 170 161 168 175 180 185 195 206 213 213 185 186 206 191
233 234 245 258 255 261 252 264 258 152 119 112 107 127 165 149 150 149 150 150 152 152 142 144 151 149 151 154 161 166 170 168 181 182 181 190 198 209 201 202 167 194 200 200
238 241 221 242 254 265 259 260 285 286 196 213 170 193 184 159 149 144 148 149 154 152 147 146 151 152 155 159 164 170 163 166 180 177 180 192 184 235 202 185 182 203 206 208
238 239 241 245 252 259 261 239 266 277 267 251 226 190 170 163 157 147 146 146 147 140 138 143 150 154 158 162 162 157 157 165 169 177 195 191 194 208 208 199 188 193 206 211
234 228 232 234 244 255 273 281 255 263 267 273 258 206 168 154 146 139 136 137 139 136 138 143 148 152 158 162 160 156 153 162 169 186 199 200 209 210 208 201 188 202 210 216
252 237 235 240 241 249 269 271 257 248 254 255 250 235 136 141 138 134 128 130 135 134 138 141 146 146 150 152 155 154 153 161 172 190 196 196 221 234 250 243 252 233 224 225
237 233 229 237 240 226 236 250 252 241 236 249 211 172 134 134 139 132 135 138 136 138 142 145 148 148 149 150 151 146 148 159 170 183 190 195 205 220 235 233 233 242 245 240
220 222 217 220 232 236 228 243 253 269 275 259 233 151 125 131 130 131 134 130 135 142 146 149 151 150 152 153 149 143 143 154 169 175 176 191 191 211 238 238 250 234 246 252
233 225 202 207 221 238 234 243 262 268 268 260 194 134 131 142 141 135 131 130 137 139 140 144 147 145 148 150 146 143 142 154 167 166 160 170 173 195 258 284 272 292 298 256
256 252 204 196 214 232 248 252 266 272 279 274 189 175 161 159 150 141 133 137 140 136 138 140 141 146 147 149 146 140 142 148 158 163 168 161 163 161 179 280 3 10 355 6
246 254 227 200 208 225 225 240 253 273 276 283 273 126 148 155 157 145 142 142 142 143 140 136 143 138 144 147 146 147 146 153 158 158 152 141 143 149 148 172 2 341 349 17
228 243 242 223 213 226 229 235 237 251 271 286 288 154 155 168 155 145 141 137 137 139 134 136 137 129 132 134 139 141 148 156 157 150 142 137 136 133 142 166 214 236 17 8
225 241 239 230 216 211 231 232 237 244 258 267 275 154 158 149 146 150 138 132 131 128 127 132 130 133 132 127 127 133 148 152 151 144 142 138 140 139 145 183 165 91 90 80
239 237 245 239 231 212 218 231 233 236 242 245 228 148 156 159 143 134 125 128 132 132 131 132 127 121 122 122 123 132 134 127 129 127 124 125 129 134 136 135 110 107 100 131
238 237 247 260 265 247 224 223 226 231 247 256 223 174 158 149 135 129 130 130 132 137 140 137 134 127 126 126 128 124 124 119 124 127 131 140 138 131 130 112 95 80 73 81
230 250 251 253 257 261 246 224 222 227 236 243 241 185 135 135 128 130 131 136 136 143 146 146 144 140 142 139 136 134 137 129 126 133 135 129 134 136 127 112 109 98 82 73
218 239 252 249 246 252 245 230 223 224 231 236 230 176 134 132 127 130 135 137 136 140 139 144 146 145 145 143 137 146 146 144 144 136 129 133 138 134 133 136 123 116 107 97
227 230 243 250 247 241 243 241 233 227 225 214 189 142 120 119 111 105 114 123 126 126 126 124 134 135 136 139 144 143 137 133 138 139 138 136 142 136 116 115 122 130 125 117
220 220 236 243 241 237 242 236 228 221 212 198 174 149 129 122 115 110 108 107 108 112 118 124 130 126 125 130 135 133 129 128 125 124 131 140 146 129 124 133 145 148 138 128
216 208 229 239 245 240 233 228 229 215 203 174 156 144 139 139 155 133 117 108 103 93 95 109 117 115 113 114 117 123 127 128 130 126 120 114 107 113 134 131 132 132 137 121
212 209 221 237 244 250 246 217 208 220 194 136 133 132 135 114 99 111 108 103 101 98 92 91 101 105 108 114 117 118 114 113 113 112 111 108 102 106 124 110 115 134 133 118
217 213 216 231 240 236 246 226 202 124 104 111 117 114 106 104 107 107 104 101 101 98 92 90 90 90 93 106 112 109 95 79 75 81 85 81 83 86 99 110 127 141 138 138
222 226 216 219 218 67 61 83 102 111 109 109 111 111 114 116 115 111 111 108 100 97 92 91 93 89 86 88 97 99 85 75 78 79 81 87 83 69 67 81 99 140 158 160
218 239 211 170 132 111 107 103 99 108 114 113 110 115 117 116 114 112 108 103 99 94 91 91 91 88 83 78 80 84 79 75 85 92 99 101 98 84 73 56 45 49 42 91
234 204 190 148 123 107 89 97 110 111 110 109 113 114 113 116 117 116 111 105 99 96 90 88 87 86 85 82 80 84 82 86 94 102 99 114 117 112 94 62 36 43 43 28
271 246 199 165 138 120 113 106 111 115 115 114 113 108 109 111 115 114 110 105 101 98 94 93 90 86 86 85 82 74 76 84 89 102 79 89 120 111 112 109 79 50 59 58
Height
1492 1493 1493 1489 1486 1487 1488 1492 1493 1488 1484 1490 1496 1500 1500 1502 1506 1511 1516 1520 1524 1527 1530 1533 1535 1537 1538 1539 1540 1541 1543 1544 1545 1546 1548 1549 1551 1552 1553 1554 1555 1556 1557 1558
1491 1493 1485 1482 1483 1484 1487 1493 1493 1487 1484 1492 1499 1503 1499 1501 1504 1509 1514 1519 1522 1526 1529 1532 1535 1537 1538 1539 1540 1541 1542 1543 1544 1545 1547 1548 1550 1551 1552 1554 1554 1555 1556 1557
1492 1486 1482 1485 1486 1488 1488 1492 1493 1493 1489 1490 1497 1508 1502 1500 1503 1508 1512 1516 1520 1524 1528 1531 1534 1536 1537 1538 1539 1540 1541 1541 1543 1544 1546 1548 1549 1550 1551 1552 1553 1553 1554 1555
1486 1483 1485 1488 1489 1488 1494 1485 1488 1490 1497 1502 1497 1520 1509 1503 1504 1506 1511 1515 1519 1523 1527 1530 1533 1535 1537 1538 1538 1539 1540 1541 1542 1543 1545 1546 1547 1548 1550 1550 1551 1552 1553 1554
1487 1484 1487 1491 1488 1486 1488 1483 1486 1490 1496 1502 1497 1512 1515 1502 1507 1506 1509 1513 1518 1522 1526 1530 1532 1534 1536 1537 1538 1539 1539 1540 1541 1542 1544 1545 1546 1547 1548 1549 1550 1551 1551 1552
1483 1481 1483 1485 1484 1484 1484 1486 1487 1489 1494 1514 1504 1511 1521 1507 1506 1505 1509 1513 1518 1522 1526 1529 1532 1534 1535 1537 1537 1538 1539 1539 1541 1542 1543 1544 1545 1546 1547 1548 1548 1549 1550 1550
1490 1484 1482 1483 1487 1486 1488 1499 1512 1516 1518 1519 1499 1507 1513 1500 1499 1502 1508 1514 1518 1522 1525 1528 1530 1533 1535 1536 1537 1537 1538 1539 1540 1541 1542 1543 1544 1545 1546 1547 1547 1548 1548 1548
1497 1496 1483 1482 1486 1490 1490 1495 1515 1529 1528 1520 1503 1509 1505 1494 1498 1502 1507 1512 1517 1520 1524 1526 1529 1531 1533 1535 1537 1537 1538 1538 1539 1540 1541 1542 1543 1544 1545 1546 1546 1546 1546 1547
1487 1489 1475 1478 1481 1484 1490 1492 1487 1500 1509 1519 1515 1509 1502 1496 1499 1502 1507 1512 1515 1519 1522 1526 1529 1531 1533 1535 1536 1537 1537 1538 1539 1540 1540 1541 1542 1543 1544 1545 1545 1545 1545 1545
1478 1487 1476 1476 1480 1482 1484 1486 1492 1501 1518 1525 1517 1516 1514 1503 1501 1502 1506 1511 1515 1519 1523 1526 1528 1531 1532 1534 1535 1536 1537 1538 1539 1540 1540 1541 1541 1542 1543 1543 1544 1544 1544 1544
1477 1487 1482 1479 1486 1488 1488 1490 1493 1496 1498 1514 1527 1526 1499 1500 1500 1502 1506 1510 1515 1518 1522 1526 1528 1530 1532 1534 1535 1536 1537 1538 1539 1539 1540 1541 1541 1541 1542 1542 1542 1543 1543 1542
1477 1482 1488 1481 1474 1476 1480 1485 1490 1506 1506 1501 1511 1522 1496 1497 1499 1502 1506 1510 1514 1518 1522 1525 1528 1530 1532 1534 1535 1536 1537 1538 1538 1539 1539 1540 1540 1541 1541 1541 1541 1542 1541 1541
1477 1484 1498 1496 1487 1480 1481 1481 1483 1488 1495 1503 1512 1516 1494 1496 1499 1503 1506 1510 1515 1519 1522 1525 1528 1530 1532 1534 1535 1536 1537 1538 1538 1538 1539 1539 1539 1540 1540 1540 1540 1540 1540 1540
1477 1484 1492 1498 1489 1479 1484 1482 1481 1487 1497 1502 1504 1505 1498 1497 1499 1502 1506 1511 1515 1519 1523 1525 1528 1530 1532 1533 1535 1536 1537 1537 1538 1538 1538 1539 1539 1539 1539 1539 1539 1539 1539 1539
1478 1485 1484 1480 1474 1471 1476 1479 1479 1484 1487 1494 1495 1496 1495 1495 1498 1503 1507 1511 1515 1519 1523 1526 1528 1530 1532 1533 1535 1536 1537 1537 1537 1537 1538 1538 1538 1538 1538 1538 1538 1538 1538 1538
1480 1485 1485 1485 1476 1473 1474 1473 1476 1479 1481 1485 1488 1492 1489 1494 1499 1504 1508 1512 1515 1519 1522 1525 1528 1529 1531 1533 1534 1535 1536 1536 1536 1537 1537 1537 1537 1537 1537 1538 1538 1538 1537 1537
1481 1488 1492 1491 1480 1478 1484 1474 1474 1477 1477 1481 1490 1490 1489 1496 1500 1505 1509 1513 1516 1519 1522 1525 1526 1528 1530 1532 1533 1534 1535 1535 1536 1536 1536 1537 1537 1537 1537 1537 1536 1536 1536 1536
1484 1489 1491 1490 1489 1502 1480 1464 1466 1472 1475 1477 1482 1486 1491 1497 1503 1507 1510 1513 1517 1520 1522 1524 1526 1528 1529 1531 1532 1533 1534 1535 1535 1535 1536 1536 1536 1536 1536 1536 1535 1535 1535 1535
1478 1486 1491 1492 1494 1489 1475 1466 1467 1474 1479 1477 1481 1487 1492 1498 1503 1509 1512 1515 1518 1520 1522 1524 1526 1527 1528 1530 1531 1532 1533 1533 1534 1535 1535 1535 1535 1535 1535 1534 1534 1534 1534 1534
1475 1480 1489 1491 1497 1497 1480 1467 1467 1473 1485 1480 1483 1488 1493 1497 1504 1510 1513 1515 1518 1521 1522 1524 1525 1526 1527 1529 1530 1531 1532 1533 1533 1534 1534 1535 1535 1534 1534 1534 1533 1534 1534 1534
1479 1482 1488 1490 1492 1484 1469 1467 1470 1488 1489 1482 1485 1490 1494 1498 1505 1511 1513 1516 1519 1521 1523 1524 1525 1526 1527 1528 1530 1531 1532 1533 1533 1534 1534 1533 1533 1533 1533 1533 1533 1533 1533 1533
1478 1481 1486 1487 1492 1490 1472 1470 1475 1482 1482 1484 1489 1493 1497 1501 1506 1510 1514 1518 1520 1521 1523 1524 1525 1526 1527 1528 1529 1530 1531 1532 1533 1533 1533 1533 1533 1532 1532 1532 1532 1532 1532 1532
1472 1473 1474 1479 1484 1479 1476 1477 1480 1482 1486 1489 1492 1496 1500 1504 1509 1513 1516 1519 1521 1523 1524 1525 1526 1527 1528 1529 1529 1530 1531 1532 1532 1532 1532 1532 1532 1532 1531 1531 1530 1530 1530 1530
1471 1469 1472 1477 1479 1479 1480 1481 1484 1486 1489 1492 1495 1499 1502 1506 1511 1515 1518 1520 1522 1523 1524 1525 1526 1527 1528 1529 1529 1530 1530 1531 1531 1531 1531 1531 1531 1531 1530 1530 1530 1530 1529 1529
1469 1470 1473 1478 1481 1482 1483 1484 1487 1489 1492 1495 1499 1501 1504 1508 1512 1516 1519 1521 1522 1524 1525 1526 1527 1528 1528 1529 1529 1529 1530 1530 1530 1530 1530 1530 1530 1530 1530 1530 1529 1529 1528 1528
1471 1473 1475 1479 1482 1484 1488 1489 1490 1493 1496 1499 1502 1504 1508 1511 1514 1517 1520 1522 1523 1525 1526 1527 1527 1528 1528 1529 1529 1529 1529 1529 1529 1530 1530 1530 1530 1529 1529 1528 1528 1528 1528 1527